THAICOM 8

Last updated on Sun Nov 16 2025 00:03:43 GMT+0000 (Coordinated Universal Time)

1 41552U 16031A 25319.46769528 -.00000115 00000+0 00000+0 0 9991 2 41552 0.0932 44.7468 0002938 233.8973 23.0620 1.00272259 34573
UTC large
Height (km)
Speed (km/s)
/
Latitude / Longitude
Inclination (degrees)
Orbital Period (minutes)
Azimuth
Elevation
Range (km)
Doppler Factor

Next 0 passes for location: London (51.5072 / 0.1276)

Sorry there are no passes over London.